Location: Rometta
(44.2000°N, 10.0500°E)
Time: 17:30:38
(UTC+00:00)

Nadezhda 4 Rocket - Pass Details

Date: 20 January 2021
Orbit: 949 x 993 km, 82.9° (Epoch: 28 February)

Event Time Altitude Azimuth Distance (km) Brightness Sun altitude
Rises 17:08:47 0° 165° (SSE) 3,677 7.1 -10.0°
Reaches altitude 10° 17:11:25 10° 158° (SSE) 2,728 6.3 -10.4°
Maximum altitude 17:17:14 43° 90° (E) 1,344 4.3 -11.4°
Drops below altitude 10° 17:23:03 10° 21° (NNE) 2,717 6.0 -12.4°
Sets 17:25:39 0° 15° (NNE) 3,661 6.7 -12.8°
